Find STARLINK-37591

NORAD ID: 70621 Constellation: starlink operational
LEOCIRCULARRETROGRADE

Live Position

Loading 3D Globe...

About STARLINK-37591

Description loading...

Upcoming Passes

Passes for default location (London). Set your location on the main map for personalized predictions.

Altitude History

Loading altitude history...

Two-Line Element Set

1 70621C 26101J 26126.29145833 .00509110 00000+0 79547-3 0 1260
2 70621 97.2848 339.8300 0010047 259.3541 230.4464 16.03674940 17
Epoch: May 6, 2026 • Age: 19 hours